User: anonymous   Login
Location: Caltech
(34.1382°N, 118.1253°W)
Time: 18:56:17
(UTC-08:00)
Language:

Cosmos 1733 Rocket - Orbit

View from above orbital plane
View from above orbital plane
View from above satellite
View from above satellite

Ground track
Ground track

The orbit data is extracted from the following two-line orbital elements,

1 16612U 86018B   14329.43191161  .00000658  00000-0  76538-4 0   784
2 16612 082.5175 093.2540 0017403 002.3705 058.9968 14.83715659452826
Epoch (UTC): 25 November 2014 10:21:57
Eccentricity: 0.0017403
inclination: 82.5175°
perigee height: 605 km
apogee height: 630 km
right ascension of ascending node: 93.2540°
argument of perigee: 2.3705°
revolutions per day: 14.83715659
mean anomaly at epoch: 58.9968°
orbit number at epoch: 45282

The dashed part of the orbit path shows where the satellite is in the earth's shadow,  

DLR